TimeEST,TemperatureF,Dew PointF,Humidity,Sea Level PressureIn,VisibilityMPH,Wind Direction,Wind SpeedMPH,Gust SpeedMPH,PrecipitationIn,Events,Conditions,WindDirDegrees,DateUTC
12:53 AM,35.1,25.0,67,30.23,10.0,NW,9.2,-,N/A,,Overcast,320,2013-02-09 05:53:00
1:53 AM,32.0,24.1,73,30.22,10.0,North,3.5,-,N/A,,Mostly Cloudy,10,2013-02-09 06:53:00
2:53 AM,32.0,23.0,69,30.24,10.0,NW,6.9,-,N/A,,Scattered Clouds,320,2013-02-09 07:53:00
3:53 AM,28.9,21.9,75,30.24,10.0,Calm,Calm,-,N/A,,Scattered Clouds,0,2013-02-09 08:53:00
4:53 AM,28.0,21.0,75,30.26,10.0,West,5.8,-,N/A,,Scattered Clouds,270,2013-02-09 09:53:00
5:33 AM,28.9,21.9,75,30.28,10.0,WNW,5.8,-,N/A,,Mostly Cloudy,290,2013-02-09 10:33:00
5:53 AM,28.0,21.0,75,30.29,10.0,WNW,4.6,-,N/A,,Scattered Clouds,300,2013-02-09 10:53:00
6:17 AM,27.0,21.0,78,30.30,10.0,Calm,Calm,-,N/A,,Mostly Cloudy,0,2013-02-09 11:17:00
6:53 AM,27.0,21.9,81,30.31,10.0,NNW,4.6,-,N/A,,Mostly Cloudy,330,2013-02-09 11:53:00
7:18 AM,26.1,21.0,81,30.31,10.0,NNW,5.8,-,N/A,,Partly Cloudy,330,2013-02-09 12:18:00
7:53 AM,27.0,21.0,78,30.33,10.0,Calm,Calm,-,N/A,,Partly Cloudy,0,2013-02-09 12:53:00
8:53 AM,32.0,23.0,69,30.35,10.0,Calm,Calm,-,N/A,,Clear,0,2013-02-09 13:53:00
9:53 AM,35.1,21.9,59,30.34,10.0,Variable,3.5,-,N/A,,Clear,0,2013-02-09 14:53:00
10:53 AM,37.0,21.0,52,30.35,10.0,WNW,3.5,-,N/A,,Clear,290,2013-02-09 15:53:00
11:53 AM,39.0,21.0,49,30.33,10.0,SE,5.8,-,N/A,,Clear,140,2013-02-09 16:53:00
12:53 PM,42.1,19.9,41,30.31,10.0,Calm,Calm,-,N/A,,Clear,0,2013-02-09 17:53:00
1:53 PM,44.1,18.0,35,30.30,10.0,NW,4.6,-,N/A,,Clear,320,2013-02-09 18:53:00
2:53 PM,45.0,17.1,33,30.28,10.0,SW,3.5,-,N/A,,Partly Cloudy,220,2013-02-09 19:53:00
3:53 PM,48.9,17.1,28,30.27,10.0,Calm,Calm,-,N/A,,Partly Cloudy,0,2013-02-09 20:53:00
4:53 PM,48.9,19.0,31,30.27,10.0,NNE,4.6,-,N/A,,Partly Cloudy,20,2013-02-09 21:53:00
5:53 PM,44.1,19.0,37,30.27,10.0,Calm,Calm,-,N/A,,Partly Cloudy,0,2013-02-09 22:53:00
6:53 PM,36.0,23.0,59,30.28,10.0,Calm,Calm,-,N/A,,Partly Cloudy,0,2013-02-09 23:53:00
7:53 PM,35.1,23.0,61,30.29,10.0,Calm,Calm,-,N/A,,Partly Cloudy,0,2013-02-10 00:53:00
8:53 PM,30.9,23.0,72,30.28,10.0,Calm,Calm,-,N/A,,Partly Cloudy,0,2013-02-10 01:53:00
9:53 PM,33.1,21.9,64,30.27,10.0,Calm,Calm,-,N/A,,Partly Cloudy,0,2013-02-10 02:53:00
10:53 PM,28.0,21.0,75,30.27,10.0,Calm,Calm,-,N/A,,Clear,0,2013-02-10 03:53:00
11:53 PM,28.0,21.9,78,30.25,10.0,Calm,Calm,-,N/A,,Clear,0,2013-02-10 04:53:00